TISAT 1

Last updated on Wed Sep 09 2026 00:03:50 GMT+0000 (Coordinated Universal Time)

1 36799U 10035E 26251.32888149 .00023212 00000+0 69153-3 0 9998 2 36799 98.0755 205.4778 0001517 31.2299 328.9032 15.34699081880440
UTC large
Height (km)
Speed (km/s)
/
Latitude / Longitude
Inclination (degrees)
Orbital Period (minutes)
Azimuth
Elevation
Range (km)
Doppler Factor

Next 0 passes for location: London (51.5072 / 0.1276)

No passes found over London.
TISAT 1